Terminal Aerodrome Forecast
Issued by NWS Twin Cities, MN

Home | Current Version | Previous Version | Graphics & Text | Print | Product List | Glossary On
Versions: 1 2 3 4 5 6 7 8 9 10 11 12 13 14 15 16 17 18
000
FTUS43 KMPX 231936 AAA
TAFEAU
TAF AMD
KEAU 231936Z 2320/2418 14010KT P6SM VCSH SCT030 BKN110
     FM232200 15012KT P6SM SCT050 BKN100
     FM240330 17011KT P6SM VCSH SCT030 BKN050 PROB30 2405/2407 2SM
      TSRA BKN020CB
     FM240700 19010KT P6SM SCT020 BKN080
     FM240900 23005KT P6SM SCT250=

USA.gov is the U.S. government's official web portal to all federal, state and local government web resources and services.